Torna al catalogo

STARLINK-5517

AttivoComunicazioniVLEO
NORAD 57249·PAYLOAD·🇺🇸 United States

Lanciato Jul 7, 2023 da Vandenberg Space Force Base

Loading…

Prossimi Passaggi (prossime 24 ore)

TLE

AggiornatoSource: CelesTrak SupGP

Epoca: Sep 14, 2026, 13:53 UTC

1 57249C 23094AH  26257.57895833 -.00020601  00000+0 -74635-3 0  2570
2 57249  43.0015  32.8312 0001330 256.9963  10.9225 15.27580915    11

Traccia STARLINK-5517 in tempo reale con AllMySat

Download on the App Store